Time,TemperatureF,DewpointF,PressureIn,WindDirection,WindDirectionDegrees,WindSpeedMPH,WindSpeedGustMPH,Humidity,HourlyPrecipIn,Conditions,Clouds,dailyrainin,SoftwareType,DateUTC
2013-10-08 00:14:00,47.0,45.0,30.18,NW,307,0.0,-999.0,93,-99.99,,,-99.99,,2013-10-08 04:14:00,
2013-10-08 00:23:00,46.0,44.0,30.18,NW,307,0.0,-999.0,93,-99.99,,,-99.99,,2013-10-08 04:23:00,
2013-10-08 00:43:00,46.0,44.0,30.18,NW,307,0.0,-999.0,92,-99.99,,,-99.99,,2013-10-08 04:43:00,
2013-10-08 00:53:00,45.0,43.0,30.18,NW,307,0.0,-999.0,93,-99.99,,,-99.99,,2013-10-08 04:53:00,
2013-10-08 01:13:00,45.0,43.0,30.18,NW,307,0.0,-999.0,93,-99.99,,,-99.99,,2013-10-08 05:13:00,
2013-10-08 01:22:00,45.0,43.0,30.19,NW,307,0.0,-999.0,93,-99.99,,,-99.99,,2013-10-08 05:22:00,
2013-10-08 01:53:00,44.0,42.0,30.19,NW,307,0.0,-999.0,93,-99.99,,,-99.99,,2013-10-08 05:53:00,
2013-10-08 02:12:00,44.0,42.0,30.19,NW,307,0.0,-999.0,93,-99.99,,,-99.99,,2013-10-08 06:12:00,
2013-10-08 02:22:00,44.0,42.0,30.19,NW,307,0.0,-999.0,93,-99.99,,,-99.99,,2013-10-08 06:22:00,
2013-10-08 02:52:00,43.0,41.0,30.20,NW,307,0.0,-999.0,93,-99.99,,,-99.99,,2013-10-08 06:52:00,
2013-10-08 03:11:00,43.0,41.0,30.20,NW,307,0.0,-999.0,93,-99.99,,,-99.99,,2013-10-08 07:11:00,
2013-10-08 03:21:00,42.0,40.0,30.20,NW,307,0.0,-999.0,93,-99.99,,,-99.99,,2013-10-08 07:21:00,
2013-10-08 03:42:00,42.0,40.0,30.20,NW,307,0.0,-999.0,93,-99.99,,,-99.99,,2013-10-08 07:42:00,
2013-10-08 03:52:00,42.0,40.0,30.20,NW,307,0.0,-999.0,93,-99.99,,,-99.99,,2013-10-08 07:52:00,
2013-10-08 04:12:00,41.0,39.0,30.20,NW,307,0.0,-999.0,94,-99.99,,,-99.99,,2013-10-08 08:12:00,
2013-10-08 04:22:00,41.0,39.0,30.20,NW,307,0.0,-999.0,94,-99.99,,,-99.99,,2013-10-08 08:22:00,
2013-10-08 04:52:00,41.0,39.0,30.20,NW,307,0.0,-999.0,94,-99.99,,,-99.99,,2013-10-08 08:52:00,
2013-10-08 05:12:00,41.0,39.0,30.20,NW,307,0.0,-999.0,94,-99.99,,,-99.99,,2013-10-08 09:12:00,
2013-10-08 05:22:00,40.0,38.0,30.21,NW,307,0.0,-999.0,94,-99.99,,,-99.99,,2013-10-08 09:22:00,
2013-10-08 05:53:00,40.0,38.0,30.22,NW,307,0.0,-999.0,94,-99.99,,,-99.99,,2013-10-08 09:53:00,
2013-10-08 06:12:00,40.0,38.0,30.22,NW,307,0.0,-999.0,94,-99.99,,,-99.99,,2013-10-08 10:12:00,
2013-10-08 06:23:00,39.0,37.0,30.22,NW,307,0.0,-999.0,94,-99.99,,,-99.99,,2013-10-08 10:23:00,
2013-10-08 06:53:00,39.0,37.0,30.23,NW,307,0.0,-999.0,94,-99.99,,,-99.99,,2013-10-08 10:53:00,
2013-10-08 07:12:00,39.0,37.0,30.24,NW,307,0.0,-999.0,94,-99.99,,,-99.99,,2013-10-08 11:12:00,
2013-10-08 07:22:00,39.0,37.0,30.24,NW,307,0.0,-999.0,94,-99.99,,,-99.99,,2013-10-08 11:22:00,
2013-10-08 07:42:00,39.0,37.0,30.24,NW,307,0.0,-999.0,94,-99.99,,,-99.99,,2013-10-08 11:42:00,
2013-10-08 07:52:00,38.0,36.0,30.25,NW,307,0.0,-999.0,94,-99.99,,,-99.99,,2013-10-08 11:52:00,
2013-10-08 08:12:00,38.0,36.0,30.25,NW,307,0.0,-999.0,94,-99.99,,,-99.99,,2013-10-08 12:12:00,
2013-10-08 08:22:00,38.0,36.0,30.25,NW,307,0.0,-999.0,94,-99.99,,,-99.99,,2013-10-08 12:22:00,
2013-10-08 08:52:00,39.0,38.0,30.27,NW,307,0.0,-999.0,95,-99.99,,,-99.99,,2013-10-08 12:52:00,
2013-10-08 09:12:00,40.0,39.0,30.27,NW,307,0.0,-999.0,95,-99.99,,,-99.99,,2013-10-08 13:12:00,
2013-10-08 09:22:00,44.0,43.0,30.28,NW,307,0.0,-999.0,96,-99.99,,,-99.99,,2013-10-08 13:22:00,
2013-10-08 09:42:00,47.0,46.0,30.28,NW,307,0.0,-999.0,96,-99.99,,,-99.99,,2013-10-08 13:42:00,
2013-10-08 09:52:00,49.0,48.0,30.29,NW,307,0.0,-999.0,96,-99.99,,,-99.99,,2013-10-08 13:52:00,
2013-10-08 10:22:00,53.0,50.0,30.29,NE,39,1.0,-999.0,91,-99.99,,,-99.99,,2013-10-08 14:22:00,
2013-10-08 10:52:00,56.0,49.0,30.29,East,81,3.0,-999.0,78,-99.99,,,-99.99,,2013-10-08 14:52:00,
2013-10-08 11:11:00,57.0,51.0,30.28,ESE,104,1.0,-999.0,80,-99.99,,,-99.99,,2013-10-08 15:11:00,
2013-10-08 11:22:00,59.0,49.0,30.28,ESE,117,6.0,-999.0,70,-99.99,,,-99.99,,2013-10-08 15:22:00,
2013-10-08 11:44:00,60.0,49.0,30.28,ENE,57,7.0,-999.0,66,-99.99,,,-99.99,,2013-10-08 15:44:00,
2013-10-08 11:53:00,61.0,48.0,30.28,ENE,59,8.0,-999.0,62,-99.99,,,-99.99,,2013-10-08 15:53:00,
2013-10-08 12:13:00,61.0,48.0,30.27,NNE,30,9.0,-999.0,62,-99.99,,,-99.99,,2013-10-08 16:13:00,
2013-10-08 12:23:00,62.0,47.0,30.27,East,82,7.0,-999.0,58,-99.99,,,-99.99,,2013-10-08 16:23:00,
2013-10-08 12:42:00,63.0,48.0,30.26,East,83,7.0,-999.0,59,-99.99,,,-99.99,,2013-10-08 16:42:00,
2013-10-08 12:53:00,63.0,48.0,30.26,NE,53,6.0,-999.0,57,-99.99,,,-99.99,,2013-10-08 16:53:00,
2013-10-08 13:12:00,64.0,48.0,30.26,NE,37,6.0,-999.0,56,-99.99,,,-99.99,,2013-10-08 17:12:00,
2013-10-08 13:23:00,64.0,48.0,30.25,East,92,6.0,-999.0,56,-99.99,,,-99.99,,2013-10-08 17:23:00,
2013-10-08 13:42:00,65.0,48.0,30.25,East,96,6.0,-999.0,55,-99.99,,,-99.99,,2013-10-08 17:42:00,
2013-10-08 13:52:00,65.0,48.0,30.24,NE,55,7.0,-999.0,55,-99.99,,,-99.99,,2013-10-08 17:52:00,
2013-10-08 14:11:00,65.0,49.0,30.24,ENE,71,5.0,-999.0,56,-99.99,,,-99.99,,2013-10-08 18:11:00,
2013-10-08 14:22:00,66.0,50.0,30.23,NE,47,5.0,-999.0,56,-99.99,,,-99.99,,2013-10-08 18:22:00,
2013-10-08 14:42:00,66.0,46.0,30.22,East,91,5.0,-999.0,49,-99.99,,,-99.99,,2013-10-08 18:42:00,
2013-10-08 14:52:00,67.0,48.0,30.22,East,80,5.0,-999.0,50,-99.99,,,-99.99,,2013-10-08 18:52:00,
2013-10-08 15:11:00,67.0,48.0,30.22,NNE,25,6.0,-999.0,50,-99.99,,,-99.99,,2013-10-08 19:11:00,
2013-10-08 15:22:00,68.0,48.0,30.21,NE,50,4.0,-999.0,48,-99.99,,,-99.99,,2013-10-08 19:22:00,
2013-10-08 15:42:00,68.0,48.0,30.21,East,84,6.0,-999.0,48,-99.99,,,-99.99,,2013-10-08 19:42:00,
2013-10-08 15:52:00,68.0,47.0,30.20,North,5,5.0,-999.0,47,-99.99,,,-99.99,,2013-10-08 19:52:00,
2013-10-08 16:12:00,68.0,48.0,30.20,ENE,74,4.0,-999.0,48,-99.99,,,-99.99,,2013-10-08 20:12:00,
2013-10-08 16:22:00,69.0,47.0,30.20,East,80,6.0,-999.0,45,-99.99,,,-99.99,,2013-10-08 20:22:00,
2013-10-08 16:42:00,69.0,47.0,30.19,East,88,5.0,-999.0,46,-99.99,,,-99.99,,2013-10-08 20:42:00,
2013-10-08 16:52:00,69.0,48.0,30.19,NE,42,5.0,-999.0,47,-99.99,,,-99.99,,2013-10-08 20:52:00,
2013-10-08 17:12:00,69.0,47.0,30.19,ENE,69,6.0,-999.0,45,-99.99,,,-99.99,,2013-10-08 21:12:00,
2013-10-08 17:22:00,69.0,47.0,30.19,ENE,68,6.0,-999.0,46,-99.99,,,-99.99,,2013-10-08 21:22:00,
2013-10-08 17:44:00,69.0,48.0,30.19,ENE,67,4.0,-999.0,47,-99.99,,,-99.99,,2013-10-08 21:44:00,
2013-10-08 17:54:00,69.0,48.0,30.19,NE,54,3.0,-999.0,47,-99.99,,,-99.99,,2013-10-08 21:54:00,
2013-10-08 18:13:00,69.0,48.0,30.19,ENE,71,5.0,-999.0,47,-99.99,,,-99.99,,2013-10-08 22:13:00,
2013-10-08 18:24:00,68.0,48.0,30.20,ENE,76,5.0,-999.0,48,-99.99,,,-99.99,,2013-10-08 22:24:00,
2013-10-08 18:47:00,67.0,48.0,30.20,ENE,59,2.0,-999.0,50,-99.99,,,-99.99,,2013-10-08 22:47:00,
2013-10-08 18:59:00,67.0,49.0,30.20,ENE,74,2.0,-999.0,53,-99.99,,,-99.99,,2013-10-08 22:59:00,
2013-10-08 19:12:00,66.0,49.0,30.20,ENE,65,2.0,-999.0,54,-99.99,,,-99.99,,2013-10-08 23:12:00,
2013-10-08 19:23:00,64.0,49.0,30.20,East,82,1.0,-999.0,59,-99.99,,,-99.99,,2013-10-08 23:23:00,
2013-10-08 19:52:00,59.0,49.0,30.21,East,82,0.0,-999.0,70,-99.99,,,-99.99,,2013-10-08 23:52:00,
2013-10-08 20:12:00,58.0,49.0,30.21,East,82,0.0,-999.0,72,-99.99,,,-99.99,,2013-10-09 00:12:00,
2013-10-08 20:22:00,56.0,49.0,30.22,East,82,0.0,-999.0,77,-99.99,,,-99.99,,2013-10-09 00:22:00,
2013-10-08 20:52:00,53.0,48.0,30.22,East,82,0.0,-999.0,83,-99.99,,,-99.99,,2013-10-09 00:52:00,
2013-10-08 21:02:00,53.0,48.0,30.22,East,82,0.0,-999.0,83,-99.99,,,-99.99,,2013-10-09 01:02:00,
2013-10-08 21:12:00,53.0,48.0,30.22,East,82,0.0,-999.0,83,-99.99,,,-99.99,,2013-10-09 01:12:00,
2013-10-08 21:22:00,52.0,48.0,30.22,East,82,0.0,-999.0,86,-99.99,,,-99.99,,2013-10-09 01:22:00,
2013-10-08 21:43:00,51.0,47.0,30.22,East,82,0.0,-999.0,87,-99.99,,,-99.99,,2013-10-09 01:43:00,
2013-10-08 21:52:00,51.0,48.0,30.22,East,82,0.0,-999.0,88,-99.99,,,-99.99,,2013-10-09 01:52:00,
2013-10-08 22:23:00,50.0,47.0,30.23,East,82,0.0,-999.0,89,-99.99,,,-99.99,,2013-10-09 02:23:00,
2013-10-08 22:42:00,49.0,46.0,30.23,East,82,0.0,-999.0,90,-99.99,,,-99.99,,2013-10-09 02:42:00,
2013-10-08 22:52:00,49.0,46.0,30.23,East,82,0.0,-999.0,91,-99.99,,,-99.99,,2013-10-09 02:52:00,
2013-10-08 23:11:00,49.0,46.0,30.24,East,82,0.0,-999.0,91,-99.99,,,-99.99,,2013-10-09 03:11:00,
2013-10-08 23:23:00,48.0,45.0,30.24,East,82,0.0,-999.0,91,-99.99,,,-99.99,,2013-10-09 03:23:00,
2013-10-08 23:44:00,48.0,45.0,30.24,East,82,0.0,-999.0,91,-99.99,,,-99.99,,2013-10-09 03:44:00,
2013-10-08 23:54:00,47.0,45.0,30.24,East,82,0.0,-999.0,91,-99.99,,,-99.99,,2013-10-09 03:54:00,